Location: Beneden-Haastrecht
(52.0012°N, 4.7557°E)
Time: 11:37:59
(UTC+00:00)

CZ-2C R/B - Pass Details

Date: 24 October 2020
Orbit: 784 x 871 km, 98.2° (Epoch: 24 November)

Event Time Altitude Azimuth Distance (km) Brightness Sun altitude
Rises 19:48:48 0° 13° (NNE) 3,462 6.0 -31.2°
Reaches altitude 10° 19:51:13 10° 11° (N) 2,514 5.3 -31.6°
Enters shadow 19:53:40 27° 6° (N) 1,599 4.2 -31.9°
